NOAA 16 DEB, 41202

Orbit data source: Space-Track

NOAA 16 DEB, 41202 is space debris in SSO originally from a launch on Thu, 21 Sep 2000 UTC launched from the Air Force Western Test Range (AFWTR). Debris objects in space refer to the collection of defunct objects orbiting the Earth. Examples of debris include non-operational satellites, rocket bodies, and fragments generated from explosions, collisions, or faulty payload assembly.

Loading next visibility...
Identifier
41202, 2000-055DF
Orbit
SSO
Country
Flag of USUS
Related business
Manufacturer
Unknown
Mission
Spacecraft
Bus & Motor
Unknown
Mass
Unknown
Launch date (UTC)
2000-09-21 (26 years ago)
Launch vehicle
Unknown
Launch site
Air Force Western Test Range (AFWTR)
Object type
Payload
Rocket body
Debris
Shape & HBR
Unknown shape, 0.1 m
Radar Cross Section
Medium (>0.1 m² and <1 m²)

Expand to show TLE details & history
Last TLE update: 4 days ago

TLE from 4 days ago
0 NOAA 16 DEB
1 41202U 00055DF  26252.15939183  .00001547  00000-0  92915-3 0  9991
2 41202  98.8883 232.0271 0072028 187.9097 172.0941 14.07081669548971
Epoch: 2026-09-09T03:49Z
TLE epoch observation values (Epoch: 2026-09-09T03:49:31.454Z)
Latitude
-0.00007°
Longitude
-173.5694°
Altitude
923.99 km
Speed
7.363 km/s
True Right ascension
15h 28m 06s
True Declination
0° 00' 00"
Sunlit
Object was in daylight at epoch
Visualization orbit readout
Latitude
Unknown
Longitude
Unknown
Altitude
Unknown
Speed
Unknown
Apparent Right ascension
Unknown
Apparent Declination
Unknown
Sunlit
N/A
Visualization observer readout
Local Sidereal Time
18:34:46
Azimuth
Unknown
Elevation
Unknown
Doppler factor
Unknown
Orbital elements
Apogee altitude
918.742 km
Perigee altitude
814.378 km
Semi-major axis
7,244.697 km
Eccentricity
0.0072
Inclination
98.8883°
RAAN
232.0271°
Arg. of periapsis
187.9097°
True anomaly
172.20662°
Mean anomaly
172.0941°
Eccentric anomaly
172.15046°
Mean motion
3.51976 °/min
Orbital period
102.28 mins
BSTAR
0.00092915
Loading maneuver chart data...
Computing Atmospheric mass density...
Loading historical data...
Loading historical data...
Loading historical data...
Loading historical data...
Loading historical data...
Loading historical data...
Loading historical data...

Documentation

Showing up to 5 results
|